Regional Weather Roundup
Issued by NWS Memphis, TN

Home | Current Version | Previous Version | Text Only | Print | Product List | Glossary On
Versions: 1 2 3 4 5 6 7 8 9 10 11 12 13 14 15 16 17 18 19 20 21 22 23 24 25 26 27 28 29 30 31 32 33 34 35 36 37 38 39 40 41 42 43 44 45 46 47 48 49 50
000
ASUS44 KMEG 261210
RWRMEG
MEMPHIS CWA HOURLY WEATHER ROUNDUP
NATIONAL WEATHER SERVICE MEMPHIS TN
700 AM CDT FRI MAY 26 2017

...WEST TENNESSEE...

CITY           SKY/WX    TMP DP  RH WIND       PRES   REMARKS
MEMPHIS INTL   MOSUNNY   67  61  81 S12       29.88S
6HR MIN TEMP:  64; 6HR MAX TEMP:  67;

NWS MEMPHIS      N/A     66 N/A N/A MISG        N/A
JACKSON        SUNNY     65  58  78 S8        29.91R
6HR MIN TEMP:  57; 6HR MAX TEMP:  65;

COVINGTON      SUNNY     64  57  77 S6G13     29.89R
BOLIVAR        SUNNY     61  57  88 SE3       29.92R
LEXINGTON      CLOUDY    59  55  88 MISG      29.93S
SELMER         CLOUDY    63  55  77 S6        29.94R
SAVANNAH       SUNNY     61  55  82 S5        29.94R
DYERSBURG        N/A    N/A N/A N/A MISG        N/A
UNION CITY     MOSUNNY   64  57  77 S9        29.89R
PARIS          CLOUDY    61  55  82 S9        29.90R
HUNTINGDON     SUNNY     61  57  88 S6        29.91S


...EASTERN ARKANSAS...

CITY           SKY/WX    TMP DP  RH WIND       PRES   REMARKS
JONESBORO      MOSUNNY   65  60  84 S8        29.84S
6HR MIN TEMP:  61; 6HR MAX TEMP:  65;

WEST MEMPHIS   SUNNY     67  63  87 S12       29.87R
6HR MIN TEMP:  62; 6HR MAX TEMP:  67;

BATESVILLE     CLOUDY    68  63  83 SE5       29.82R
6HR MIN TEMP:  64; 6HR MAX TEMP:  68;

NEWPORT        PTSUNNY   68  63  84 S15       29.82S
6HR MIN TEMP:  65; 6HR MAX TEMP:  68;

WALNUT RIDGE   MOSUNNY   66  57  72 S13       29.81R
6HR MIN TEMP:  64; 6HR MAX TEMP:  66;

BLYTHEVILLE    SUNNY     66  59  78 S9        29.88R
6HR MIN TEMP:  64; 6HR MAX TEMP:  66;

SEARCY         MOSUNNY   68  66  93 S12       29.83R
6HR MIN TEMP:  63; 6HR MAX TEMP:  68;

STUTTGART      MOSUNNY   70  55  60 S20       29.85R
6HR MIN TEMP:  68; 6HR MAX TEMP:  72;

PINE BLUFF     MOSUNNY   67  63  87 S15       29.85R
6HR MIN TEMP:  66; 6HR MAX TEMP:  69;

MONTICELLO     SUNNY     67  63  87 S10       29.88R
6HR MIN TEMP:  66; 6HR MAX TEMP:  68;



...NORTH MISSISSIPPI...

CITY           SKY/WX    TMP DP  RH WIND       PRES   REMARKS
TUPELO         SUNNY     62  57  83 SE5       29.96R
6HR MIN TEMP:  58; 6HR MAX TEMP:  62;

OXFORD         LGT RAIN  61  55  82 S5        29.96R
BATESVILLE     SUNNY     63  60  91 S3        29.93S
6HR MIN TEMP:  56; 6HR MAX TEMP:  63;

OLIVE BRANCH   MOSUNNY  N/A N/A N/A S9        29.89
TUNICA         SUNNY     63  61  94 SE8       29.90S
CLARKSDALE       N/A     66  66 100 MISG      29.90S
CORINTH        SUNNY     63  55  77 S7        29.94S
GREENWOOD      MOSUNNY   65  62  90 S8        29.94R
6HR MIN TEMP:  62; 6HR MAX TEMP:  66;

COLUMBUS       SUNNY     61  60  97 SE3       29.97R
6HR MIN TEMP:  56; 6HR MAX TEMP:  61;

STARKVILLE     SUNNY     59  57  94 CALM      29.98R
GOLDEN TRIANGL SUNNY     63  54  72 S5        29.94R


...SOUTHEAST MISSOURI...

CITY           SKY/WX    TMP DP  RH WIND       PRES   REMARKS
KENNETT        SUNNY     66  61  82 S8        29.84R
MALDEN         SUNNY     68  59  73 S13       29.84F
WEST PLAINS    CLOUDY    64  60  87 SE7       29.80R
6HR MIN TEMP:  62; 6HR MAX TEMP:  64; 6HR PCP: TRACE;

POPLAR BLUFF   MOSUNNY   64  59  83 S9        29.80F
6HR MIN TEMP:  59; 6HR MAX TEMP:  65;

CAPE GIRARDEAU CLOUDY    64  56  75 S8        29.84R
6HR MIN TEMP:  57; 6HR MAX TEMP:  64;



...NORTHWEST ALABAMA...

CITY           SKY/WX    TMP DP  RH WIND       PRES   REMARKS
MUSCLE SHOALS  SUNNY     59  54  83 E3        29.98R
6HR MIN TEMP:  55; 6HR MAX TEMP:  59;



...MIDDLE TENNESSEE...

CITY           SKY/WX    TMP DP  RH WIND       PRES   REMARKS
NASHVILLE      MOSUNNY   59  54  83 S6        29.96R
6HR MIN TEMP:  54; 6HR MAX TEMP:  59;

CLARKSVILLE    SUNNY     57  53  86 SE3       29.93R
6HR MIN TEMP:  53; 6HR MAX TEMP:  57;

COLUMBIA       SUNNY     57  55  94 CALM      29.95R


...WESTERN KENTUCKY...

CITY           SKY/WX    TMP DP  RH WIND       PRES   REMARKS
PADUCAH        SUNNY     64  54  69 S7        29.86R
6HR MIN TEMP:  57; 6HR MAX TEMP:  64;

FORT CAMPBELL  SUNNY     60  54  78 S5        29.92R
6HR MIN TEMP:  57; 6HR MAX TEMP:  60;



...CENTRAL ARKANSAS...

CITY           SKY/WX    TMP DP  RH WIND       PRES   REMARKS
LITTLE ROCK    PTSUNNY   68  65  90 S15G22    29.80S
6HR MIN TEMP:  65; 6HR MAX TEMP:  68;



SKY/WX REPORTED AS FAIR MEANS FEW OR NO CLOUDS BELOW
12 THOUSAND FEET.




USA.gov is the U.S. government's official web portal to all federal, state and local government web resources and services.